Location: Camerons Lookout
(40.9833°S, 175.9333°E)
Time: 09:07:41
(UTC+00:00)

Cosmos 1975 Rocket - Pass Details

Date: 14 January 2026
Orbit: 596 x 627 km, 82.5° (Epoch: 15 February)

Event Time Altitude Azimuth Distance (km) Brightness Sun altitude
Rises 10:03:16 0° 184° (S) 2,910 7.5 -19.6°
Reaches altitude 10° 10:05:32 10° 180° (S) 2,002 6.5 -19.8°
Maximum altitude 10:09:55 59° 100° (E) 727 3.2 -20.3°
Enters shadow 10:10:42 50° 57° (ENE) 799 3.2 -20.3°
